Location: Hains Lake
(37.8540°N, 99.8578°W)
Time: 03:23:24
(UTC+00:00)

Vanguard 2 Rocket - Pass Details

Date: 27 April 2021
Orbit: 553 x 3326 km, 32.9° (Epoch: 07 May)

Event Time Altitude Azimuth Distance (km) Brightness Sun altitude
Rises 16:02:11 0° 210° (SSW) 4,641 10.5 48.3°
Reaches altitude 10° 16:05:10 10° 201° (SSW) 4,000 10.3 48.8°
Maximum altitude 16:15:10 35° 140° (SE) 3,377 11.4 50.6°
Drops below altitude 10° 16:30:10 10° 83° (E) 6,013 11.7 53.2°
Sets 16:35:54 0° 77° (ENE) 7,233 11.8 54.1°
